User: anonymous   Login
Location: Chenango Forks
(42.2242°N, 75.8278°W)
Time: 15:43:23
(UTC-04:00)
Language:

Okean 3 Rocket - Orbit

View from above orbital plane
View from above orbital plane
View from above satellite
View from above satellite

Ground track
Ground track

The orbit data is extracted from the following two-line orbital elements,

1 21398U 91039B   17235.23821733  .00000063  00000-0  52884-5 0  9993
2 21398  82.5251 163.7786 0020602 326.6976 186.3909 14.79671705413826
Epoch (UTC): 23 August 2017 05:43:01
Eccentricity: 0.0020602
inclination: 82.5251°
perigee height: 616 km
apogee height: 645 km
right ascension of ascending node: 163.7786°
argument of perigee: 326.6976°
revolutions per day: 14.79671705
mean anomaly at epoch: 186.3909°
orbit number at epoch: 41382

The dashed part of the orbit path shows where the satellite is in the earth's shadow,  

DLR